TimeCST,TemperatureF,Dew PointF,Humidity,Sea Level PressureIn,VisibilityMPH,Wind Direction,Wind SpeedMPH,Gust SpeedMPH,PrecipitationIn,Events,Conditions,WindDirDegrees,DateUTC
12:53 AM,36.0,30.9,82,30.40,9.0,Calm,Calm,-,N/A,,Clear,0,2012-11-16 06:53:00
1:53 AM,36.0,30.9,82,30.40,8.0,Calm,Calm,-,N/A,,Clear,0,2012-11-16 07:53:00
2:53 AM,36.0,32.0,86,30.42,9.0,Calm,Calm,-,N/A,,Clear,0,2012-11-16 08:53:00
3:53 AM,34.0,30.0,85,30.41,8.0,NNW,3.5,-,N/A,,Clear,330,2012-11-16 09:53:00
4:53 AM,35.1,30.9,85,30.40,8.0,North,3.5,-,N/A,,Clear,10,2012-11-16 10:53:00
5:53 AM,32.0,30.0,92,30.42,8.0,Calm,Calm,-,N/A,,Clear,0,2012-11-16 11:53:00
6:53 AM,32.0,28.9,88,30.43,8.0,Calm,Calm,-,N/A,,Clear,0,2012-11-16 12:53:00
7:53 AM,35.1,30.9,85,30.44,10.0,Calm,Calm,-,N/A,,Clear,0,2012-11-16 13:53:00
8:53 AM,42.1,35.1,76,30.44,10.0,Calm,Calm,-,N/A,,Clear,0,2012-11-16 14:53:00
9:53 AM,48.0,35.1,61,30.44,10.0,ESE,5.8,-,N/A,,Clear,110,2012-11-16 15:53:00
10:53 AM,54.0,35.1,49,30.43,10.0,SE,5.8,-,N/A,,Clear,130,2012-11-16 16:53:00
11:53 AM,59.0,34.0,39,30.41,10.0,SE,5.8,-,N/A,,Clear,130,2012-11-16 17:53:00
12:53 PM,61.0,32.0,34,30.38,10.0,South,6.9,-,N/A,,Clear,180,2012-11-16 18:53:00
1:53 PM,62.1,30.9,31,30.36,10.0,SE,10.4,-,N/A,,Clear,140,2012-11-16 19:53:00
2:53 PM,61.0,30.9,32,30.35,10.0,South,9.2,-,N/A,,Clear,170,2012-11-16 20:53:00
3:53 PM,60.1,30.9,33,30.35,10.0,SSE,10.4,-,N/A,,Clear,160,2012-11-16 21:53:00
4:53 PM,55.9,33.1,42,30.35,10.0,South,6.9,-,N/A,,Partly Cloudy,180,2012-11-16 22:53:00
5:53 PM,52.0,33.1,49,30.35,10.0,SSE,5.8,-,N/A,,Partly Cloudy,150,2012-11-16 23:53:00
6:53 PM,46.9,32.0,56,30.35,10.0,SSE,5.8,-,N/A,,Clear,150,2012-11-17 00:53:00
7:53 PM,44.1,32.0,63,30.35,10.0,SSE,8.1,-,N/A,,Clear,150,2012-11-17 01:53:00
8:53 PM,46.9,32.0,56,30.34,10.0,SE,9.2,-,N/A,,Clear,140,2012-11-17 02:53:00
9:53 PM,46.0,32.0,58,30.34,10.0,SSE,10.4,-,N/A,,Clear,160,2012-11-17 03:53:00
10:53 PM,43.0,32.0,65,30.33,10.0,SSE,8.1,-,N/A,,Clear,160,2012-11-17 04:53:00
11:53 PM,43.0,32.0,65,30.34,10.0,SSE,10.4,-,N/A,,Clear,160,2012-11-17 05:53:00